Temperature
20 21 20 21 20 19 18 17 17 18 18 19 18 17 18 19 21 22 22 23 23 23 23 23 23 22 22 22 21 21 20 20 20 19 19 18 18 18 17 17 17 16 16 16
21 21 21 21 21 20 19 19 18 18 18 18 16 17 16 17 19 19 21 22 22 23 23 23 23 23 22 22 22 21 21 20 20 20 19 19 18 18 18 17 17 17 16 16
19 20 21 20 20 20 19 18 18 18 18 16 15 14 14 15 17 18 20 21 22 22 22 23 23 23 22 22 22 21 21 20 20 20 19 19 18 18 18 17 17 17 16 16
17 20 20 19 19 19 18 17 16 16 16 15 15 14 14 15 17 18 19 20 21 21 22 22 22 22 22 22 21 21 20 20 20 19 19 19 18 18 18 17 17 17 16 16
16 18 19 19 18 18 18 18 16 15 15 16 16 16 15 15 17 18 18 19 19 20 20 21 21 21 21 21 20 20 19 19 19 19 18 18 18 18 18 17 17 17 16 16
15 18 18 19 18 18 18 18 17 16 15 16 16 15 14 15 16 17 18 18 18 19 19 20 19 19 20 19 19 18 18 18 18 17 17 17 17 17 17 16 16 16 16 16
16 17 17 18 17 18 18 18 17 17 16 16 15 14 14 15 16 17 17 17 18 18 18 18 17 18 18 17 17 16 16 16 16 16 16 16 16 16 15 15 15 15 15 15
14 16 17 17 17 17 17 17 17 17 17 16 15 14 15 15 16 16 16 17 17 17 16 16 16 16 16 15 15 15 15 15 15 15 14 14 14 14 14 14 14 13 13 14
15 16 16 16 16 17 17 17 17 17 16 16 15 15 15 15 15 15 15 15 15 15 15 15 14 14 14 13 13 13 13 13 13 13 13 13 13 13 13 13 12 12 12 12
14 14 15 16 16 17 17 18 17 17 16 16 15 15 15 15 14 14 14 14 14 14 14 13 13 13 12 12 12 12 12 12 12 12 12 12 12 11 11 11 11 11 11 11
14 14 15 16 16 17 17 17 17 16 16 16 15 15 15 14 14 14 14 13 13 13 13 12 12 12 12 11 11 11 11 11 11 11 11 10 10 10 10 10 10 10 10 10
15 15 14 16 17 17 17 17 16 16 15 15 15 15 14 14 14 13 13 13 12 12 12 11 11 11 11 11 11 10 10 10 10 10 10 10 10 10 10 9 9 9 9 9
17 17 16 16 16 16 16 16 15 15 15 15 15 14 14 13 13 13 12 12 11 11 11 11 11 10 10 10 10 10 10 10 9 9 9 9 9 9 8 9 9 9 9 8
16 16 15 15 15 15 15 15 15 15 14 14 14 14 13 13 12 12 11 11 11 11 11 10 10 10 10 10 10 10 9 9 9 9 8 8 8 8 7 7 7 8 8 8
15 16 15 15 14 14 15 15 14 14 14 13 13 13 13 12 12 11 11 11 11 10 10 10 10 10 10 10 9 9 9 9 9 8 8 8 7 7 7 7 6 6 6 7
14 14 14 14 14 14 14 14 14 13 13 13 13 12 12 12 11 11 11 11 10 10 10 10 10 10 9 9 9 9 9 8 8 8 7 7 7 6 6 5 5 5 5 5
14 13 13 13 13 13 13 13 13 13 13 13 12 12 12 11 11 11 11 10 10 10 10 10 10 9 9 9 9 8 8 8 7 7 6 6 5 5 5 4 4 4 4 5
14 14 14 14 13 13 13 12 12 12 12 12 12 11 11 11 11 11 11 10 10 10 10 10 9 9 9 8 8 8 7 7 6 6 5 5 4 4 4 4 4 4 4 4
13 13 13 13 12 12 12 12 12 12 12 12 11 11 11 11 11 11 10 10 10 10 10 9 9 8 8 8 7 7 6 6 5 5 4 4 3 3 3 3 3 3 3 3
12 12 12 12 12 12 12 12 12 11 11 11 11 11 11 11 11 10 10 10 10 9 9 9 8 8 7 7 6 6 5 5 4 4 3 3 3 3 3 2 2 2 3 3
11 11 11 11 11 11 11 11 11 11 11 11 11 11 11 10 10 10 10 10 9 9 8 8 7 7 6 6 5 5 4 3 3 2 2 2 2 2 2 2 2 2 2 2
11 11 11 11 11 11 11 11 11 11 11 11 10 10 10 10 10 10 9 9 8 8 7 7 6 6 5 4 4 3 3 2 2 2 2 1 1 1 1 1 1 2 2 2
10 10 10 10 10 10 10 10 10 10 10 10 10 10 10 9 9 9 8 8 7 7 6 6 5 4 4 3 3 2 2 2 1 1 1 1 1 1 1 1 1 1 1 2
10 10 10 10 10 10 10 10 10 10 10 9 9 9 9 8 8 8 7 7 6 6 5 4 4 3 3 2 2 1 1 1 1 0 0 0 1 1 1 1 1 1 1 1
9 9 9 9 9 9 9 9 9 9 9 9 8 8 8 7 7 7 6 5 5 4 4 3 3 2 2 1 1 1 0 0 -0 -0 0 0 0 0 0 1 1 1 1 1
9 9 9 9 8 8 8 8 8 8 8 8 7 7 7 6 6 6 5 4 4 3 3 2 2 1 1 0 0 0 -0 -0 -0 -0 -0 -0 -0 0 0 0 0 1 1 1
8 8 8 8 8 7 7 7 7 7 7 7 6 6 6 5 5 4 4 3 3 2 2 1 1 1 0 0 -0 -0 -0 -0 -0 -0 -0 -0 -0 -0 0 0 0 1 1 1
Wind_Speed
6 4 4 5 5 7 8 8 8 8 7 8 6 6 7 5 2 3 4 5 7 8 8 8 8 9 10 10 9 10 11 12 13 12 10 10 10 10 10 10 11 10 10 10
2 1 3 3 5 6 6 5 7 5 6 3 4 3 4 5 3 2 1 2 3 4 5 7 9 9 9 9 9 9 11 13 11 9 9 10 10 10 10 10 10 10 11 11
3 2 2 5 5 5 4 4 6 7 5 1 4 6 5 6 5 4 3 3 2 2 3 4 5 6 8 8 7 8 10 9 8 9 10 11 11 10 11 11 10 11 11 11
2 2 5 7 2 4 5 3 3 3 2 3 5 4 6 7 7 7 7 7 6 5 3 3 2 0 2 3 4 6 6 6 6 7 9 8 8 10 11 9 9 11 12 12
4 3 5 5 2 4 5 3 4 5 4 4 5 4 8 9 9 8 8 7 7 6 5 6 6 3 4 4 3 2 3 4 5 6 7 7 9 11 9 8 10 10 9 12
4 4 6 7 2 2 3 4 5 6 5 2 2 3 2 6 8 10 10 9 9 8 11 11 9 7 8 6 6 3 3 2 1 2 5 7 8 8 6 7 9 9 10 11
4 4 7 5 2 4 4 7 3 5 3 3 3 4 3 4 7 9 9 10 10 11 12 10 8 9 10 8 6 4 4 4 4 3 2 3 4 4 5 6 6 8 10 10
5 3 7 3 4 6 6 1 3 4 5 7 8 8 7 8 9 9 10 11 11 12 11 9 9 10 10 8 6 5 6 6 6 5 4 4 3 3 3 4 5 7 8 9
8 7 5 3 5 2 3 4 4 5 7 10 10 8 8 8 8 8 9 9 8 9 9 9 9 9 9 6 5 6 7 7 6 6 5 4 4 4 3 3 4 6 6 8
4 7 5 4 3 3 4 5 6 9 10 11 11 9 9 7 7 7 7 7 6 8 9 8 7 7 5 4 5 6 6 6 5 5 6 5 4 3 3 4 4 5 6 8
5 6 3 3 4 5 6 8 9 9 9 11 12 10 8 7 6 5 5 4 5 6 6 5 5 6 6 5 5 6 5 5 5 5 5 5 5 4 5 5 6 6 7 8
7 7 6 4 3 6 9 9 11 12 10 8 9 9 7 6 4 4 4 3 4 4 4 3 4 5 5 5 4 4 4 5 4 5 5 5 6 7 8 8 12 13 13 12
3 1 3 4 5 7 8 10 10 11 11 10 7 7 7 5 3 3 3 3 2 1 2 2 3 4 5 5 4 3 3 4 4 5 6 6 6 7 9 10 11 13 15 15
3 6 6 5 6 9 12 12 11 10 9 8 7 7 6 5 3 3 1 0 1 1 2 3 3 5 5 4 4 4 4 6 6 5 6 7 7 8 8 10 11 11 12 15
6 7 8 9 11 11 10 11 12 9 8 7 6 6 5 4 2 1 1 2 2 2 3 4 4 5 5 5 4 5 5 5 6 6 7 7 8 9 9 11 11 12 12 13
10 12 13 14 13 11 10 10 9 7 5 5 4 3 3 2 1 2 3 2 2 4 4 4 4 5 5 5 5 5 5 9 9 7 8 8 9 9 10 11 11 12 12 13
10 9 11 11 10 9 8 7 7 5 4 3 3 2 1 0 2 4 5 4 3 3 3 3 4 5 4 4 4 5 6 8 11 9 8 9 9 10 11 11 12 12 13 14
9 9 10 10 10 8 7 5 4 3 2 2 1 0 1 2 4 6 5 4 3 3 3 3 3 4 5 5 4 5 5 6 7 8 8 9 10 10 11 11 13 14 13 14
12 11 10 10 8 7 5 3 2 1 1 1 1 2 4 5 5 5 4 3 3 4 4 4 6 5 5 6 6 4 6 7 8 8 9 10 11 10 11 12 12 13 13 13
11 10 10 8 6 4 2 1 1 2 2 2 2 3 4 5 4 3 2 2 2 2 3 4 4 4 5 6 7 5 6 7 8 9 9 9 10 11 11 12 12 13 13 12
9 7 6 4 2 1 1 1 2 3 4 2 2 4 4 4 3 1 1 2 2 3 3 4 4 4 5 6 7 6 6 7 8 9 9 10 10 11 11 12 12 12 12 12
3 2 2 1 1 3 3 3 3 3 4 3 2 2 2 2 2 2 1 1 1 3 3 4 4 6 7 7 5 6 7 8 8 8 9 9 10 10 11 12 12 12 11 12
1 2 2 2 2 3 4 3 3 3 3 3 2 2 1 1 0 0 1 1 2 4 4 4 6 8 9 6 6 7 7 8 8 9 9 9 9 10 10 12 11 11 11 11
2 2 2 2 1 2 3 4 4 3 2 2 2 1 1 1 2 2 1 3 5 5 4 5 9 10 8 6 6 7 7 8 8 9 9 9 9 9 10 10 11 11 11 13
2 2 2 2 2 2 3 4 4 3 3 2 3 3 2 1 1 2 3 4 5 5 4 6 9 9 7 6 6 7 7 8 9 9 9 9 9 9 10 10 10 11 11 11
2 2 2 2 2 3 3 2 2 2 1 1 2 2 3 3 4 4 4 5 6 6 5 4 6 6 6 6 6 7 7 8 8 8 9 9 10 10 10 11 13 11 10 11
2 2 2 2 3 2 2 2 2 2 2 1 0 1 2 3 4 4 5 4 4 4 4 4 5 5 6 6 7 7 7 7 8 8 9 9 9 9 10 12 10 10 10 11
Wind_Direction
225 223 180 212 216 183 187 194 197 230 231 266 293 296 299 292 241 193 220 222 221 223 224 219 214 211 210 212 203 191 191 201 212 212 207 207 209 212 213 213 219 218 220 226
257 253 198 233 244 211 213 209 221 244 258 273 317 341 358 7 35 63 346 279 259 244 233 223 218 216 212 211 199 186 198 211 213 204 204 210 215 215 216 220 221 220 223 227
241 323 30 263 234 197 200 210 196 214 231 18 39 34 20 22 39 45 33 21 355 306 275 260 241 219 214 211 186 188 207 216 212 207 212 216 217 216 221 224 222 224 229 230
147 91 236 252 271 170 166 212 218 209 169 126 119 98 53 38 44 42 34 30 19 13 10 350 337 246 174 142 163 194 216 227 222 215 224 224 219 225 228 224 222 229 232 232
133 186 267 279 209 166 169 242 205 181 176 166 162 97 41 27 40 47 42 39 31 27 29 34 32 41 89 92 109 152 227 239 232 222 229 227 228 235 231 224 229 229 231 231
131 170 237 250 215 162 117 279 215 180 190 198 142 86 29 10 36 47 48 48 44 41 47 43 30 49 69 63 58 33 351 335 312 236 233 239 243 245 238 231 239 240 242 239
157 211 260 253 178 125 173 243 199 158 149 110 93 124 134 61 53 52 53 51 51 55 52 40 34 57 61 52 40 18 26 38 37 26 307 269 264 256 252 249 253 253 254 253
145 190 259 211 145 185 213 183 118 114 107 107 106 99 89 74 63 56 57 55 55 59 52 37 37 58 59 43 25 35 47 46 37 28 18 6 339 310 285 268 270 271 271 273
187 212 241 209 206 217 163 144 134 125 121 121 112 102 90 77 69 62 60 58 56 64 57 40 35 51 57 24 20 42 45 37 24 14 9 1 353 337 329 311 287 285 284 284
238 263 255 233 213 189 160 142 135 132 129 124 117 112 102 91 80 69 60 57 57 63 58 39 25 35 35 10 23 45 38 21 12 7 355 350 345 331 321 311 303 300 297 293
247 268 284 258 201 157 126 119 113 109 112 119 118 113 110 102 91 83 74 63 66 72 64 37 19 20 12 11 29 39 27 11 0 354 345 339 334 316 305 284 275 281 285 284
228 226 193 216 164 140 125 120 118 115 105 108 115 116 110 104 100 95 87 78 73 66 53 20 8 1 355 3 22 31 11 351 341 334 329 326 322 318 299 286 291 286 272 271
236 145 134 110 103 105 111 111 111 112 118 115 108 111 111 108 104 99 89 79 74 48 6 344 344 340 338 347 2 7 342 326 322 322 320 317 316 314 313 312 302 294 289 286
136 110 90 89 98 98 104 104 101 96 99 106 107 105 106 107 106 102 96 284 285 312 319 322 329 327 329 339 347 341 329 322 319 310 310 310 309 307 304 305 309 308 302 295
68 98 116 107 96 92 97 102 100 96 93 89 96 106 113 119 130 191 272 299 321 325 323 328 327 322 330 341 340 332 327 320 315 312 311 309 307 306 305 303 302 302 304 303
83 86 97 99 99 96 96 100 102 103 104 105 109 121 142 155 191 280 295 312 319 307 311 319 314 313 327 339 338 332 326 325 328 319 317 316 315 314 312 309 307 307 306 306
96 95 100 102 100 99 99 105 115 123 123 128 153 166 156 336 312 300 302 316 304 288 294 295 298 312 330 337 336 328 325 325 328 324 318 317 317 315 313 310 308 307 305 304
91 100 108 113 110 102 94 92 106 124 147 177 162 136 281 272 270 278 294 316 330 329 324 314 316 327 336 338 335 327 324 322 323 320 320 319 317 314 312 310 310 310 310 309
81 85 85 89 98 104 111 129 155 177 213 221 230 262 267 269 272 282 298 316 316 312 317 333 344 349 343 338 343 331 330 329 327 325 323 319 319 319 318 316 314 314 314 316
75 78 80 84 93 110 137 178 216 271 285 283 279 285 291 293 297 295 312 308 282 272 302 336 348 350 345 342 349 342 338 334 331 329 328 327 324 322 322 321 321 321 320 320
65 68 73 75 59 24 337 316 295 291 299 293 263 265 275 291 304 297 300 307 319 351 0 2 6 357 352 352 351 347 342 338 334 332 329 327 325 324 323 323 322 322 322 323
47 36 22 350 340 320 316 316 298 293 302 301 285 274 286 313 345 9 7 242 314 12 27 19 11 8 7 3 355 349 345 340 335 332 330 328 327 326 324 324 324 325 325 325
336 304 308 307 296 296 318 330 324 309 298 298 298 304 308 321 346 52 333 360 38 52 46 29 17 15 10 5 355 350 346 342 338 335 332 330 329 327 326 327 329 331 331 333
312 322 323 320 340 359 345 332 334 330 328 337 346 15 105 92 43 42 91 72 67 64 47 28 21 16 13 7 358 352 346 342 339 337 334 333 333 332 332 332 332 332 333 334
317 332 345 359 358 320 302 313 333 350 5 13 19 29 39 79 106 79 77 76 70 59 42 25 21 19 16 6 359 353 348 346 344 341 338 338 337 336 335 335 336 334 335 335
333 324 312 295 280 282 296 307 304 304 318 356 14 31 50 65 83 85 83 75 64 50 39 24 17 17 11 4 357 354 352 348 347 345 342 340 338 339 338 339 337 338 336 336
351 348 342 339 329 318 307 292 278 280 270 230 42 56 75 80 83 81 79 71 59 44 34 25 19 14 10 6 2 360 357 353 351 348 346 345 343 342 341 340 341 340 341 342
Height
1488 1485 1487 1488 1489 1493 1498 1501 1506 1498 1495 1486 1482 1480 1477 1475 1475 1477 1479 1482 1485 1488 1490 1493 1495 1498 1501 1503 1506 1509 1511 1512 1514 1516 1518 1520 1521 1522 1523 1524 1524 1525 1525 1525
1486 1483 1484 1487 1485 1486 1489 1490 1492 1491 1489 1481 1481 1479 1477 1475 1475 1475 1477 1479 1481 1484 1486 1488 1491 1493 1496 1499 1501 1504 1506 1508 1510 1512 1513 1515 1516 1518 1519 1519 1520 1520 1520 1520
1495 1488 1486 1492 1484 1483 1485 1484 1485 1488 1485 1482 1482 1481 1479 1476 1476 1476 1476 1477 1479 1481 1483 1485 1487 1489 1492 1494 1497 1499 1501 1503 1505 1507 1508 1510 1512 1513 1513 1514 1515 1514 1515 1515
1497 1494 1502 1489 1477 1477 1481 1482 1481 1481 1481 1481 1482 1482 1481 1479 1477 1476 1477 1478 1479 1480 1482 1483 1485 1486 1488 1490 1492 1494 1496 1498 1500 1502 1503 1505 1506 1507 1508 1508 1509 1508 1508 1508
1501 1501 1495 1484 1477 1478 1481 1481 1478 1479 1480 1480 1481 1481 1482 1481 1479 1478 1479 1480 1481 1482 1482 1483 1484 1485 1486 1487 1489 1490 1492 1493 1494 1496 1497 1498 1499 1500 1501 1501 1501 1501 1501 1501
1499 1499 1500 1483 1475 1474 1479 1483 1475 1476 1478 1479 1479 1484 1488 1484 1482 1482 1482 1482 1483 1483 1483 1483 1484 1484 1484 1485 1486 1487 1488 1489 1490 1491 1491 1492 1493 1493 1494 1494 1493 1493 1493 1493
1497 1497 1490 1475 1473 1476 1488 1482 1473 1474 1476 1478 1479 1483 1486 1485 1484 1484 1484 1484 1485 1485 1484 1484 1485 1485 1484 1485 1485 1486 1486 1486 1486 1486 1486 1486 1486 1486 1486 1485 1485 1484 1484 1484
1498 1498 1491 1471 1473 1476 1475 1471 1471 1473 1475 1477 1480 1483 1485 1486 1486 1486 1487 1486 1487 1486 1486 1487 1487 1486 1485 1484 1485 1485 1485 1484 1483 1483 1482 1482 1481 1480 1479 1478 1477 1476 1475 1474
1483 1481 1471 1468 1469 1469 1470 1470 1471 1473 1476 1478 1481 1484 1486 1487 1488 1489 1490 1489 1489 1489 1489 1489 1488 1487 1486 1486 1486 1485 1483 1482 1481 1481 1480 1478 1477 1475 1474 1472 1471 1469 1467 1465
1475 1469 1466 1466 1466 1467 1468 1469 1471 1474 1477 1479 1482 1485 1488 1490 1491 1492 1492 1492 1492 1492 1491 1490 1490 1489 1488 1487 1486 1484 1483 1481 1480 1479 1477 1476 1474 1472 1470 1467 1465 1463 1461 1458
1472 1466 1464 1463 1464 1466 1468 1470 1472 1475 1478 1481 1483 1487 1489 1491 1492 1493 1494 1494 1494 1493 1492 1492 1491 1490 1489 1487 1486 1484 1482 1480 1479 1477 1475 1472 1470 1468 1466 1464 1462 1458 1455 1453
1467 1461 1462 1461 1463 1466 1468 1470 1473 1476 1480 1484 1486 1489 1491 1493 1494 1495 1495 1495 1494 1493 1493 1492 1491 1489 1488 1486 1485 1483 1481 1479 1477 1474 1471 1469 1466 1463 1461 1459 1456 1453 1450 1447
1459 1459 1460 1462 1464 1467 1470 1473 1476 1479 1482 1486 1489 1491 1493 1494 1495 1495 1495 1495 1494 1493 1492 1491 1490 1489 1487 1485 1483 1481 1479 1476 1474 1471 1468 1464 1461 1457 1453 1450 1448 1445 1442 1439
1458 1459 1461 1463 1466 1470 1473 1476 1480 1483 1486 1489 1491 1493 1494 1495 1496 1496 1495 1495 1494 1493 1492 1491 1489 1487 1486 1484 1482 1479 1477 1474 1471 1467 1463 1460 1456 1452 1447 1443 1438 1435 1433 1430
1458 1459 1462 1465 1469 1473 1477 1480 1483 1486 1489 1491 1493 1494 1495 1496 1496 1495 1495 1494 1493 1492 1491 1489 1487 1486 1484 1482 1479 1477 1473 1470 1466 1462 1459 1455 1450 1446 1442 1437 1432 1427 1423 1420
1462 1463 1466 1469 1473 1477 1481 1484 1487 1489 1492 1493 1494 1495 1496 1495 1495 1495 1494 1493 1491 1490 1489 1487 1485 1484 1481 1479 1476 1473 1470 1466 1462 1458 1453 1449 1445 1440 1435 1431 1426 1421 1416 1412
1466 1469 1471 1475 1478 1482 1485 1488 1490 1492 1494 1494 1495 1495 1495 1495 1494 1493 1492 1491 1490 1488 1487 1485 1483 1481 1478 1476 1472 1469 1465 1461 1457 1453 1448 1443 1439 1434 1429 1424 1419 1414 1410 1405
1472 1474 1476 1479 1482 1486 1488 1491 1493 1494 1494 1495 1494 1494 1494 1493 1492 1491 1490 1489 1488 1486 1484 1482 1480 1477 1475 1472 1468 1464 1460 1456 1451 1447 1442 1438 1433 1429 1424 1419 1414 1409 1403 1398
1478 1480 1482 1485 1487 1489 1491 1493 1494 1494 1494 1494 1493 1493 1492 1491 1490 1489 1488 1486 1484 1483 1481 1479 1476 1474 1471 1467 1463 1459 1455 1450 1446 1442 1437 1433 1428 1424 1419 1414 1409 1404 1399 1393
1483 1485 1487 1489 1491 1492 1493 1494 1494 1494 1493 1492 1491 1491 1490 1489 1488 1486 1485 1483 1481 1479 1477 1475 1472 1470 1466 1462 1458 1454 1450 1446 1442 1437 1433 1429 1424 1420 1415 1410 1405 1400 1395 1389
1488 1489 1490 1491 1492 1493 1493 1493 1493 1492 1491 1490 1489 1488 1487 1486 1485 1483 1481 1480 1478 1476 1474 1471 1468 1465 1461 1458 1454 1450 1446 1442 1438 1434 1429 1425 1420 1416 1411 1407 1402 1397 1391 1386
1491 1492 1492 1492 1492 1492 1492 1492 1491 1490 1489 1488 1487 1486 1485 1483 1482 1480 1479 1477 1475 1473 1470 1467 1464 1461 1457 1454 1450 1447 1443 1439 1435 1431 1426 1422 1418 1413 1408 1404 1399 1393 1388 1383
1492 1492 1492 1492 1492 1491 1490 1489 1488 1488 1487 1486 1484 1483 1482 1481 1479 1478 1476 1474 1472 1469 1467 1464 1460 1457 1454 1451 1447 1444 1440 1436 1432 1428 1424 1420 1415 1411 1406 1401 1396 1391 1386 1381
1492 1491 1491 1491 1490 1489 1488 1487 1486 1485 1484 1483 1482 1480 1479 1478 1476 1475 1473 1471 1469 1466 1463 1461 1458 1455 1452 1448 1445 1441 1438 1434 1430 1426 1422 1418 1413 1409 1404 1399 1395 1390 1385 1380
1491 1490 1489 1489 1488 1487 1486 1485 1484 1483 1481 1480 1479 1478 1476 1475 1474 1471 1470 1468 1466 1463 1461 1458 1456 1453 1450 1446 1443 1440 1436 1432 1428 1424 1420 1416 1412 1408 1403 1399 1394 1389 1384 1379
1489 1488 1487 1486 1485 1484 1483 1482 1481 1480 1478 1477 1476 1475 1473 1472 1470 1469 1467 1465 1463 1461 1459 1457 1454 1451 1448 1445 1442 1439 1435 1432 1428 1424 1420 1416 1412 1408 1403 1399 1394 1389 1384 1380
1487 1486 1485 1484 1483 1482 1480 1479 1478 1477 1475 1474 1473 1472 1470 1469 1468 1466 1465 1463 1462 1460 1458 1456 1454 1451 1448 1446 1443 1439 1436 1432 1428 1424 1420 1417 1412 1408 1404 1399 1395 1390 1386 1381